Torna al catalogo

STARLINK-34298

AttivoComunicazioniVLEO
NORAD 64269·PAYLOAD·🇺🇸 United States

Lanciato Jun 4, 2025 da Vandenberg Space Force Base

Loading…

Prossimi Passaggi (prossime 24 ore)

TLE

AggiornatoSource: CelesTrak SupGP

Epoca: Sep 15, 2026, 02:49 UTC

1 64269C 25120P   26258.11784722  .00040069  00000+0  11836-2 0  2589
2 64269  53.1595 311.0740 0001231  89.8227 117.0174 15.34376236    18

Traccia STARLINK-34298 in tempo reale con AllMySat

Download on the App Store